CW9259 Weather Reports


Display with metric or nautical units.
time (UTC)temp
F
wind
direction
speed
MPH
gust
MPH
rain 1hr
in
rain 24hr
in
rain mn
in
humidity
%
barometer
mb
20260901233139 66 321 0.0 0.0 0.00 0.00 0.00 87 1015.6
20260901231612 66 321 0.0 0.0 0.00 0.00 0.00 87 1015.6
20260901230125 66 321 0.0 0.0 0.00 0.00 0.00 86 1015.6
20260901224656 66 319 0.0 1.0 0.00 0.00 0.00 86 1015.7
20260901223142 66 327 0.0 0.0 0.00 0.00 0.00 86 1015.7
20260901221619 65 322 0.0 0.0 0.00 0.00 0.00 85 1015.7
20260901220142 65 321 0.0 0.0 0.00 0.00 0.00 85 1015.7
20260901214556 66 322 0.0 0.0 0.00 0.00 0.00 85 1015.6
20260901213132 66 322 0.0 0.0 0.00 0.00 0.00 83 1015.5
20260901211556 66 321 0.0 0.0 0.00 0.00 0.00 82 1015.5
20260901210135 67 326 0.0 0.0 0.00 0.00 0.00 82 1015.6
20260901204611 66 289 0.0 0.0 0.00 0.00 0.00 82 1015.5
20260901203136 67 288 0.0 0.0 0.00 0.00 0.00 82 1015.6
20260901201559 67 286 0.0 0.0 0.00 0.00 0.00 81 1015.5
20260901200136 67 286 0.0 0.0 0.00 0.00 0.00 81 1015.5
20260901194609 68 286 0.0 0.0 0.00 0.00 0.00 80 1015.3
20260901193135 68 288 0.0 0.0 0.00 0.00 0.00 79 1015.2
20260901191635 69 288 0.0 0.0 0.00 0.00 0.00 79 1015.1
20260901190136 70 288 0.0 1.0 0.00 0.00 0.00 77 1014.8
20260901184556 71 314 0.0 0.0 0.00 0.00 0.00 75 1014.6
20260901183130 72 314 0.0 0.0 0.00 0.00 0.00 75 1014.4
20260901181615 74 315 0.0 0.0 0.00 0.00 0.00 73 1014.3
20260901180133 75 313 0.0 0.0 0.00 0.00 0.00 71 1014.1
20260901174558 76 314 0.0 0.0 0.00 0.00 0.00 70 1014.0
20260901173135 78 313 0.0 0.0 0.00 0.00 0.00 67 1013.9
20260901171603 80 35 0.0 2.0 0.00 0.00 0.00 62 1013.8
20260901170140 82 126 0.0 3.0 0.00 0.00 0.00 60 1013.7
20260901164617 82 126 1.0 4.0 0.00 0.00 0.00 55 1013.7
20260901163128 83 111 1.0 7.0 0.00 0.00 0.00 55 1013.7
20260901161557 83 77 3.0 5.0 0.00 0.00 0.00 55 1013.7
20260901160135 84 131 1.0 8.0 0.00 0.00 0.00 53 1013.9
20260901154557 85 119 3.0 8.0 0.00 0.00 0.00 52 1013.9
20260901153135 85 88 2.0 7.0 0.00 0.00 0.00 51 1013.9
20260901151557 85 78 4.0 9.0 0.00 0.00 0.00 50 1013.9
20260901150114 86 96 3.0 7.0 0.00 0.00 0.00 50 1014.0
20260901144601 86 139 2.0 8.0 0.00 0.00 0.00 47 1014.1
20260901143129 86 230 4.0 9.0 0.00 0.00 0.00 47 1014.1
20260901141610 86 114 6.0 10.0 0.00 0.00 0.00 44 1014.3
20260901140137 86 323 1.0 8.0 0.00 0.00 0.00 44 1014.3
20260901134557 86 156 2.0 8.0 0.00 0.00 0.00 46 1014.4
20260901133133 86 139 3.0 8.0 0.00 0.00 0.00 40 1014.4
20260901131559 86 101 3.0 7.0 0.00 0.00 0.00 43 1014.5
20260901130123 85 177 2.0 11.0 0.00 0.00 0.00 44 1014.6
20260901124601 85 211 3.0 6.0 0.00 0.00 0.00 42 1014.7
20260901123145 84 114 3.0 8.0 0.00 0.00 0.00 45 1014.8
20260901121604 84 134 6.0 11.0 0.00 0.00 0.00 44 1014.8
20260901120140 84 131 4.0 8.0 0.00 0.00 0.00 49 1014.8
20260901114557 84 39 4.0 9.0 0.00 0.00 0.00 46 1015.0
20260901113132 83 143 3.0 6.0 0.00 0.00 0.00 46 1015.1
20260901111558 83 125 4.0 7.0 0.00 0.00 0.00 44 1015.1
20260901110134 82 130 4.0 8.0 0.00 0.00 0.00 49 1015.3
20260901104602 83 119 3.0 8.0 0.00 0.00 0.00 43 1015.4
20260901103134 82 27 3.0 6.0 0.00 0.00 0.00 47 1015.6
20260901101606 82 160 4.0 9.0 0.00 0.00 0.00 48 1015.6
20260901100119 82 82 1.0 9.0 0.00 0.00 0.00 48 1015.7
20260901094557 81 135 4.0 7.0 0.00 0.00 0.00 50 1015.8
20260901093142 80 80 2.0 7.0 0.00 0.00 0.00 49 1015.8
20260901091600 79 137 1.0 5.0 0.00 0.00 0.00 48 1015.8
20260901090126 78 63 3.0 7.0 0.00 0.00 0.00 48 1015.8
20260901084559 77 111 3.0 9.0 0.00 0.00 0.00 52 1015.8
20260901083134 76 94 3.0 6.0 0.00 0.00 0.00 51 1015.6
20260901081602 76 42 4.0 12.0 0.00 0.00 0.00 49 1015.5
20260901080002 75 18 3.0 8.0 0.00 0.00 0.00 47 1015.1
20260901074557 74 108 4.0 7.0 0.00 0.00 0.00 54 1014.8
20260901073143 72 22 0.0 3.0 0.00 0.00 0.00 52 1014.7
20260901071559 71 13 1.0 3.0 0.00 0.00 0.00 59 1014.6
20260901070145 69 326 1.0 3.0 0.00 0.00 0.00 63 1014.6
20260901064610 67 325 0.0 2.0 0.00 0.00 0.00 66 1014.6
20260901063125 64 325 0.0 2.0 0.00 0.00 0.00 73 1014.5
20260901061607 62 325 1.0 2.0 0.00 0.00 0.00 83 1014.5
20260901060133 60 323 0.0 2.0 0.00 0.00 0.00 82 1014.4
20260901054558 59 322 0.0 2.0 0.00 0.00 0.00 82 1014.2
20260901053134 58 322 0.0 2.0 0.00 0.00 0.00 82 1014.1
20260901051600 58 322 1.0 2.0 0.00 0.00 0.00 80 1014.1
20260901050138 58 323 1.0 2.0 0.00 0.00 0.00 77 1013.9
20260901044620 58 316 2.0 4.0 0.00 0.00 0.00 76 1013.9
20260901043118 58 334 0.0 3.0 0.00 0.00 0.00 76 1013.7
20260901041557 59 331 1.0 3.0 0.00 0.00 0.00 75 1013.5
20260901040132 59 340 3.0 4.0 0.00 0.00 0.00 75 1013.4
20260901034558 59 355 3.0 4.0 0.00 0.00 0.00 77 1013.3
20260901033130 59 346 0.0 4.0 0.00 0.00 0.00 77 1013.2
20260901031600 60 302 2.0 5.0 0.00 0.00 0.00 73 1013.0
20260901030134 59 323 3.0 5.0 0.00 0.00 0.00 72 1013.1
20260901024602 58 314 3.0 6.0 0.00 0.00 0.00 74 1013.0
20260901023132 58 161 0.0 3.0 0.00 0.00 0.00 80 1013.1
20260901021610 59 161 0.0 3.0 0.00 0.00 0.00 79 1013.1
20260901020126 59 331 2.0 3.0 0.00 0.00 0.00 78 1012.9
20260901014557 59 342 1.0 5.0 0.00 0.00 0.00 78 1012.7
20260901013130 58 344 2.0 3.0 0.00 0.00 0.00 77 1012.7
20260901011657 58 277 1.0 4.0 0.00 0.00 0.00 77 1012.7
20260901010134 59 217 2.0 3.0 0.00 0.00 0.00 77 1012.6
20260901004559 59 233 2.0 3.0 0.00 0.00 0.00 76 1012.4
20260901004501 59 233 2.0 3.0 0.00 0.00 0.00 76 1012.5
20260901003143 60 252 1.0 3.0 0.00 0.00 0.00 75 1012.3
20260901001605 60 251 0.0 2.0 0.00 0.00 0.00 74 1012.2
20260901000137 61 259 1.0 3.0 0.00 0.00 0.00 73 1012.3
20260831234600 61 259 0.0 2.0 0.00 0.00 0.00 73 1012.2